World > North America > United States > Ohio

Cable, Ohio Regional Weather

Lat: 40.17N, Lon: 83.63W
Wx Zone: OHZ052
Warning FLW WEATHER ALERT - EXCESSIVE HEAT WARNING (More Info. Click Here) Warning
Feedback

Cable, OH Regional Weather

Expires:201907210100;;377304
ASUS41 KCLE 210002
RWRCLE
OHIO REGIONAL WEATHER ROUNDUP
NATIONAL WEATHER SERVICE CLEVELAND, OH
800 PM EDT SAT JUL 20 2019

NOTE: "FAIR" INDICATES FEW OR NO CLOUDS BELOW 12,000 FEET WITH NO
SIGNIFICANT WEATHER AND/OR OBSTRUCTIONS TO VISIBILITY.


OHZ042-051>053-060>062-070>072-077>081-210100-
  SOUTHWEST OHIO
  
CITY           SKY/WX    TMP DP  RH WIND       PRES   REMARKS
CINC-COVINGTON FAIR      90  71  53 SW5       29.95F HX  96           
CINC-LUNKEN    FAIR      89  72  56 SW6       29.93F HX  96           
HAMILTON       NOT AVBL                                               
DAYTON         FAIR      89  73  59 W13       29.96S HX  97           
WRIGHT-PAT AFB FAIR      90  73  57 W8        29.94S HX  97           
DAYTON GENERAL FAIR      91  71  51 SW8       29.94F HX  97           
WILMINGTON     FAIR      88  72  58 SW8       29.95F HX  94           
$$


SKY/WX - Weather  TMP - Temperature  DP - Dew Point  RH - Relative Humidity
WIND - Wind Direction/Speed PRES - Barometric Pressure VSB - Visibility
WCI - Wind Chill Index E13G22 Wind - East Wind 13 mph/Gusts of 22 mph